Location: Pabrico
(37.5827°N, 122.0063°W)
Time: 14:32:52
(UTC+00:00)

BlueWalker 3 - Visible Passes

Search period start: 21 June 2024 00:00
Search period end: 01 July 2024 00:00
Orbit: 480 x 494 km, 53.2° (Epoch: 21 June)

Date Brightness Start Highest point End Pass type
(mag) Time Alt. Az. Time Alt. Az. Time Alt. Az.
21 Jun 3.5 04:46:26 10° WSW 04:49:56 37° NW 04:53:27 10° NNE visible
21 Jun 5.5 06:28:20 10° NNW 06:28:59 10° NNW 06:29:37 10° N visible
21 Jun 4.9 09:45:47 10° NNW 09:48:15 17° NNE 09:50:44 10° ENE visible
21 Jun 1.7 11:23:05 10° NW 11:26:49 83° SW 11:30:33 10° SE visible
22 Jun 3.4 04:20:40 10° WSW 04:24:13 40° NW 04:27:46 10° NE visible
22 Jun 5.4 06:02:18 10° NNW 06:03:13 11° NNW 06:04:09 10° N visible
22 Jun 4.9 09:20:08 10° NNW 09:22:31 16° NNE 09:24:53 10° ENE visible
22 Jun 1.7 10:57:23 10° NW 11:01:07 90° NE 11:04:52 10° SE visible
23 Jun 5.3 05:36:19 10° NW 05:37:28 11° NNW 05:38:37 10° N visible
23 Jun 4.9 08:54:30 10° NNW 08:56:46 15° NNE 08:59:02 10° ENE visible
23 Jun 1.8 10:31:40 10° NW 10:35:25 83° NE 10:39:08 10° SE visible
24 Jun 5.2 05:10:21 10° NW 05:11:42 12° NNW 05:13:02 10° N visible
24 Jun 4.9 08:28:51 10° NNW 08:31:00 15° NNE 08:33:10 10° ENE visible
24 Jun 2.5 10:05:57 10° NW 10:08:50 50° NNW 10:08:50 50° NNW visible
25 Jun 5.1 04:44:24 10° NW 04:45:55 12° NNW 04:47:26 10° N visible
25 Jun 4.9 08:03:11 10° N 08:05:14 14° NNE 08:07:16 10° NE visible
25 Jun 3.8 09:40:14 10° NW 09:41:43 22° NW 09:41:43 22° NW visible
26 Jun 5.1 04:18:28 10° NW 04:20:08 12° NNW 04:21:48 10° N visible
26 Jun 4.9 07:37:32 10° N 07:39:27 13° NNE 07:41:17 10° NE visible
26 Jun 4.3 09:14:30 10° NW 09:15:33 18° NW 09:15:33 18° NW visible
27 Jun 4.8 07:11:53 10° N 07:13:40 13° NNE 07:15:26 10° NE visible
27 Jun 4.4 08:48:46 10° NW 08:49:46 17° NW 08:49:46 17° NW visible
28 Jun 4.8 06:46:13 10° N 06:47:51 12° NNE 06:49:30 10° NE visible
28 Jun 4.4 08:23:02 10° NW 08:24:11 19° NW 08:24:11 19° NW visible
29 Jun 4.8 06:20:33 10° N 06:22:02 12° NNE 06:23:32 10° NE visible
29 Jun 4.2 07:57:16 10° NW 07:58:45 21° NNW 07:58:45 21° NNW visible
30 Jun 4.8 05:54:54 10° N 05:56:13 11° NNE 05:57:32 10° NE visible
30 Jun 4.0 07:31:32 10° NW 07:33:23 25° NNW 07:33:23 25° NNW visible
